Regional Weather Roundup
Issued by NWS

Home | Current Version | Previous Version | Graphics & Text | Print | Product List | Glossary On
Versions: 1 2 3 4 5 6 7 8 9 10 11 12 13 14 15 16 17 18 19 20 21 22 23 24 25 26 27 28 29 30 31 32 33 34 35 36 37 38 39 40 41 42 43 44 45 46 47 48 49 50
000
ASUS43 KBIS 250502
RWRND

NORTH DAKOTA REGIONAL WEATHER ROUNDUP
NATIONAL WEATHER SERVICE BISMARCK ND
1200 AM CDT SAT MAR 25 2017

NOTE: "FAIR" INDICATES FEW OR NO CLOUDS BELOW 12,000 FEET WITH NO
SIGNIFICANT WEATHER AND/OR OBSTRUCTIONS TO VISIBILITY.


NDZ001>003-009>011-017-250600-
NORTHWEST NORTH DAKOTA

CITY           SKY/WX    TMP DP  RH WIND       PRES   REMARKS
WILLISTON      FAIR      44  34  67 SE15G24   29.95F
MINOT          CLOUDY    31  29  92 SE14      30.09F
MINOT AFB      PTCLDY    29  27  92 SE15      30.09F WCI  18
$$

NDZ018>021-031>035-040>046-250600-
SOUTHWEST NORTH DAKOTA

CITY           SKY/WX    TMP DP  RH WIND       PRES   REMARKS
BISMARCK       FAIR      31  28  89 E10       30.14F
DICKINSON      FAIR      37  30  75 SE18      29.99F
GARRISON         N/A     29  28  96 SE9       30.09S
HETTINGER ARPT CLOUDY    39  31  72 E12       30.04S
$$

NDZ004>008-012>016-024-026-027-054-250600-
NORTHEAST NORTH DAKOTA

CITY           SKY/WX    TMP DP  RH WIND       PRES   REMARKS
GRAND FORKS    CLEAR     29  28  96 N6        30.22F
GRND FRKS AFB  CLEAR     26  26  99 N5        30.23S
DEVILS LAKE    CLOUDY    29  27  92 SE9       30.19F
$$

NDZ022-023-025-028>030-036>039-047>053-250600-
SOUTHEAST NORTH DAKOTA

CITY           SKY/WX    TMP DP  RH WIND       PRES   REMARKS
FARGO          CLEAR     29  27  92 N5        30.21S
JAMESTOWN      CLOUDY    30  27  88 E6        30.19S
$$




USA.gov is the U.S. government's official web portal to all federal, state and local government web resources and services.